Zurück zum Katalog

COSMOS 1867 COOLANT

AktivLEO
NORAD 39644·DEBRIS·🇷🇺 Russia

Gestartet Jul 10, 1987 von Baikonur Cosmodrome

Loading…

Nächste Überflüge (nächste 24 Stunden)

TLE

AktuellSource: Space-Track

Epoche: Sep 13, 2026, 21:01 UTC

1 39644U 87060M   26256.87603603  .00000190  00000-0  10198-3 0  9993
2 39644  65.0079 111.2970 0019408 276.4503  83.4374 14.34885931650539

Verfolge COSMOS 1867 COOLANT in Echtzeit mit AllMySat

Download on the App Store